User: anonymous   Login
Location: Ostrava
(49.8330°N, 18.2830°E)
Time: 11:49:22
(UTC+02:00)
Language:

NOAA 19 - Orbit

View from above orbital plane
View from above orbital plane
View from above satellite
View from above satellite

Ground track
Ground track

The orbit data is extracted from the following two-line orbital elements,

1 33591U 09005A   15110.41195492  .00000337  00000-0  20911-3 0  9997
2 33591 098.9849 060.1687 0013699 337.5875 022.4696 14.11915153319333
Epoch (UTC): 20 April 2015 09:53:12
Eccentricity: 0.0013699
inclination: 98.9849°
perigee height: 843 km
apogee height: 863 km
right ascension of ascending node: 60.1687°
argument of perigee: 337.5875°
revolutions per day: 14.11915153
mean anomaly at epoch: 22.4696°
orbit number at epoch: 31933

The dashed part of the orbit path shows where the satellite is in the earth's shadow,  

DLR